Content
SEND FEEDBACK

Daily
Averages
Monthly
Summary
United States of America

STATEN ISLAND, NEW YORK


Home > North America > United States > New York
Elevation: 152 feet     Latitude: 40 35N     Longitude: 074 09W

WEATHER
 
SELECT A DAY
Number of Records: 193,244;   Date Range: 1/1/95 - 11/24/14
 
SHARE

PRINT THIS DATA

[ ← Previous Day ]
WEATHER ALMANAC - OCTOBER 12, 2013
[ Next Day → ]
[ °C ]   °F
Weather ElementAverageHighLow
Temperature65.5 °F73 °F (3:51 pm)59 °F (7:51 am)
Dewpoint45.9 °F55.4 °F (9:02 pm)34 °F (3:51 pm)
Humidity50.8 %73 % (9:02 pm)24 % (3:51 pm)
Barometer30.18 in30.29 in (10:51 pm)30.08 in (1:51 am)
Wind Speed13.5 mph18.4 mph (12:51 pm)
Wind Gust26.5 mph (3:51 pm)
Weather ElementAverage
Visibility10 mi
Wind DirectionNE (46.7 °)

Weather ElementTotal
Precipitation---
Cooling Degree Days1 (Base 65)
Growing Degree Days16 (Base 50)
Averaged from 24 records on October 12, 2013
WEATHER CONDITIONS BREAKOUT
WIND DIRECTION BREAKOUT
WEATHER BY HOUR - OCTOBER 12, 2013
[ °C ]   °F
Local TimeTemperatureDewpointHumidityBarometerVisibilityWind DirectionWind SpeedGust SpeedPrecipitationEventsConditions
1:51 AM64.9 °F48.9 °F56 %30.08 in10.0 miNNE (30°)10.4 mphOvercast
2:51 AM63.0 °F44.1 °F50 %30.09 in10.0 miNNE (30°)12.7 mphMostly Cloudy
3:51 AM62.1 °F46.0 °F56 %30.09 in10.0 miNNE (30°)10.4 mphMostly Cloudy
4:51 AM62.1 °F39.9 °F44 %30.11 in10.0 miNNE (30°)13.8 mphMostly Cloudy
5:51 AM61.0 °F37.9 °F42 %30.11 in10.0 miNNE (30°)11.5 mphMostly Cloudy
6:51 AM61.0 °F37.0 °F41 %30.12 in10.0 miNNE (30°)10.4 mphMostly Cloudy
7:51 AM59.0 °F43.0 °F55 %30.14 in10.0 miNNE (20°)10.4 mphMostly Cloudy
8:51 AM61.0 °F39.9 °F46 %30.15 in10.0 miNNE (30°)16.1 mph21.9 mphMostly Cloudy
9:51 AM64.0 °F42.1 °F45 %30.16 in10.0 miNE (40°)12.7 mph21.9 mphMostly Cloudy
10:51 AM66.0 °F43.0 °F43 %30.18 in10.0 miNE (40°)13.8 mphMostly Cloudy
11:51 AM70.0 °F46.0 °F42 %30.19 in10.0 miENE (70°)12.7 mph18.4 mphMostly Cloudy
12:51 PM69.1 °F51.1 °F53 %30.17 in10.0 miNE (40°)18.4 mphScattered Clouds
1:51 PM69.1 °F50.0 °F51 %30.17 in10.0 miNE (40°)18.4 mph24.2 mphScattered Clouds
2:51 PM71.1 °F48.9 °F45 %30.17 in10.0 miENE (60°)10.4 mph23.0 mphScattered Clouds
3:51 PM73.0 °F34.0 °F24 %30.18 in10.0 miENE (70°)17.3 mph26.5 mphScattered Clouds
4:51 PM73.0 °F37.9 °F28 %30.19 in10.0 miENE (60°)15.0 mph18.4 mphScattered Clouds
5:51 PM70.0 °F42.1 °F36 %30.20 in10.0 miENE (70°)12.7 mph23.0 mphMostly Cloudy
6:51 PM68.0 °F48.0 °F49 %30.22 in10.0 miENE (60°)15.0 mph25.3 mphMostly Cloudy
7:51 PM66.0 °F53.1 °F63 %30.24 in10.0 miENE (60°)16.1 mph23.0 mphMostly Cloudy
8:51 PM64.9 °F55.0 °F70 %30.25 in10.0 miENE (70°)13.8 mph21.9 mphOvercast
9:02 PM64.4 °F55.4 °F73 %30.26 in10.0 miENE (60°)12.7 mph21.9 mphOvercast
9:51 PM64.9 °F54.0 °F68 %30.27 in10.0 miNE (50°)17.3 mph23.0 mphOvercast
10:51 PM63.0 °F53.1 °F70 %30.29 in10.0 miNE (40°)11.5 mphOvercast
11:51 PM62.1 °F52.0 °F70 %30.28 in10.0 miENE (60°)10.4 mphOvercast
Hourly data recorded from KEWR, located miles away from Staten Island, New York







STORIES FROM OUR PARTNERS